Year,Month,Day,Hour,Minute,Value (Times are PST for temperature in C)
2010,06,23,00,00,14.90
2010,06,23,00,01,14.80
2010,06,23,00,02,14.80
2010,06,23,00,03,14.80
2010,06,23,00,04,14.80
2010,06,23,00,05,14.80
2010,06,23,00,06,14.80
2010,06,23,00,07,14.80
2010,06,23,00,08,14.80
2010,06,23,00,09,14.70
2010,06,23,00,10,14.70
2010,06,23,00,11,14.70
2010,06,23,00,12,14.70
2010,06,23,00,13,14.70
2010,06,23,00,14,14.70
2010,06,23,00,15,14.70
2010,06,23,00,16,14.70
2010,06,23,00,17,14.60
2010,06,23,00,18,14.60
2010,06,23,00,19,14.60
2010,06,23,00,20,14.60
2010,06,23,00,21,14.60
2010,06,23,00,22,14.60
2010,06,23,00,23,14.60
2010,06,23,00,24,14.60
2010,06,23,00,25,14.50
2010,06,23,00,26,14.50
2010,06,23,00,27,14.50
2010,06,23,00,28,14.50
2010,06,23,00,29,14.50
2010,06,23,00,30,14.40
2010,06,23,00,31,14.40
2010,06,23,00,32,14.40
2010,06,23,00,33,14.40
2010,06,23,00,34,14.40
2010,06,23,00,35,14.40
2010,06,23,00,36,14.40
2010,06,23,00,37,14.40
2010,06,23,00,38,14.40
2010,06,23,00,39,14.40
2010,06,23,00,40,14.40
2010,06,23,00,41,14.40
2010,06,23,00,42,14.30
2010,06,23,00,43,14.30
2010,06,23,00,44,14.30
2010,06,23,00,45,14.30
2010,06,23,00,46,14.30
2010,06,23,00,47,14.30
2010,06,23,00,48,14.30
2010,06,23,00,49,14.30
2010,06,23,00,50,14.30
2010,06,23,00,51,14.30
2010,06,23,00,52,14.30
2010,06,23,00,53,14.20
2010,06,23,00,54,14.20
2010,06,23,00,55,14.20
2010,06,23,00,56,14.20
2010,06,23,00,57,14.20
2010,06,23,00,58,14.20
2010,06,23,00,59,14.20
2010,06,23,01,00,14.20
2010,06,23,01,01,14.20
2010,06,23,01,02,14.10
2010,06,23,01,03,14.10
2010,06,23,01,04,14.10
2010,06,23,01,05,14.10
2010,06,23,01,06,14.10
2010,06,23,01,07,14.10
2010,06,23,01,08,14.10
2010,06,23,01,09,14.10
2010,06,23,01,10,14.10
2010,06,23,01,11,14.10
2010,06,23,01,12,14.10
2010,06,23,01,13,14.10
2010,06,23,01,14,14.10
2010,06,23,01,15,14.10
2010,06,23,01,16,14.10
2010,06,23,01,17,14.10
2010,06,23,01,18,14.10
2010,06,23,01,19,14.10
2010,06,23,01,20,14.10
2010,06,23,01,21,14.10
2010,06,23,01,22,14.10
2010,06,23,01,23,14.10
2010,06,23,01,24,14.10
2010,06,23,01,25,14.10
2010,06,23,01,26,14.10
2010,06,23,01,27,14.10
2010,06,23,01,28,14.10
2010,06,23,01,29,14.10
2010,06,23,01,30,14.10
2010,06,23,01,31,14.10
2010,06,23,01,32,14.10
2010,06,23,01,33,14.10
2010,06,23,01,34,14.10
2010,06,23,01,35,14.10
2010,06,23,01,36,14.10
2010,06,23,01,37,14.10
2010,06,23,01,38,14.10
2010,06,23,01,39,14.10
2010,06,23,01,40,14.10
2010,06,23,01,41,14.10
2010,06,23,01,42,14.10
2010,06,23,01,43,14.10
2010,06,23,01,44,14.10
2010,06,23,01,49,14.10
2010,06,23,01,50,14.10
2010,06,23,01,51,14.10
2010,06,23,01,52,14.10
2010,06,23,01,53,14.10
2010,06,23,01,54,14.10
2010,06,23,01,55,14.10
2010,06,23,01,56,14.10
2010,06,23,01,57,14.10
2010,06,23,01,58,14.10
2010,06,23,01,59,14.10
2010,06,23,02,00,14.10
2010,06,23,02,01,14.10
2010,06,23,02,02,14.10
2010,06,23,02,03,14.10
2010,06,23,02,04,14.10
2010,06,23,02,05,14.10
2010,06,23,02,06,14.00
2010,06,23,02,07,14.00
2010,06,23,02,08,14.00
2010,06,23,02,09,14.00
2010,06,23,02,10,14.00
2010,06,23,02,11,14.00
2010,06,23,02,12,14.00
2010,06,23,02,13,14.00
2010,06,23,02,14,14.00
2010,06,23,02,15,14.00
2010,06,23,02,16,14.00
2010,06,23,02,17,14.00
2010,06,23,02,18,14.00
2010,06,23,02,19,14.00
2010,06,23,02,20,14.00
2010,06,23,02,21,14.00
2010,06,23,02,22,13.90
2010,06,23,02,23,13.90
2010,06,23,02,24,13.90
2010,06,23,02,25,13.90
2010,06,23,02,26,13.90
2010,06,23,02,27,13.90
2010,06,23,02,28,13.90
2010,06,23,02,29,13.90
2010,06,23,02,30,13.90
2010,06,23,02,31,13.90
2010,06,23,02,32,13.90
2010,06,23,02,33,13.90
2010,06,23,02,34,13.90
2010,06,23,02,35,13.90
2010,06,23,02,36,13.90
2010,06,23,02,37,13.90
2010,06,23,02,38,13.90
2010,06,23,02,39,13.90
2010,06,23,02,40,13.90
2010,06,23,02,41,13.90
2010,06,23,02,42,13.90
2010,06,23,02,43,13.90
2010,06,23,02,44,13.90
2010,06,23,02,45,13.90
2010,06,23,02,46,13.90
2010,06,23,02,47,13.90
2010,06,23,02,48,13.80
2010,06,23,02,49,13.80
2010,06,23,02,50,13.80
2010,06,23,02,51,13.80
2010,06,23,02,52,13.80
2010,06,23,02,53,13.80
2010,06,23,02,54,13.80
2010,06,23,02,55,13.80
2010,06,23,02,56,13.80
2010,06,23,02,57,13.80
2010,06,23,02,58,13.80
2010,06,23,02,59,13.80
2010,06,23,03,00,13.80
2010,06,23,03,01,13.80
2010,06,23,03,02,13.80
2010,06,23,03,03,13.80
2010,06,23,03,04,13.80
2010,06,23,03,05,13.80
2010,06,23,03,06,13.80
2010,06,23,03,07,13.80
2010,06,23,03,08,13.80
2010,06,23,03,09,13.80
2010,06,23,03,10,13.80
2010,06,23,03,11,13.80
2010,06,23,03,12,13.80
2010,06,23,03,13,13.80
2010,06,23,03,14,13.80
2010,06,23,03,15,13.80
2010,06,23,03,16,13.80
2010,06,23,03,17,13.80
2010,06,23,03,18,13.70
2010,06,23,03,19,13.70
2010,06,23,03,20,13.70
2010,06,23,03,21,13.70
2010,06,23,03,22,13.70
2010,06,23,03,23,13.70
2010,06,23,03,24,13.70
2010,06,23,03,25,13.70
2010,06,23,03,26,13.70
2010,06,23,03,27,13.70
2010,06,23,03,28,13.70
2010,06,23,03,29,13.70
2010,06,23,03,30,13.70
2010,06,23,03,31,13.60
2010,06,23,03,32,13.60
2010,06,23,03,33,13.60
2010,06,23,03,34,13.60
2010,06,23,03,35,13.60
2010,06,23,03,36,13.60
2010,06,23,03,37,13.60
2010,06,23,03,38,13.60
2010,06,23,03,39,13.60
2010,06,23,03,40,13.60
2010,06,23,03,41,13.60
2010,06,23,03,42,13.60
2010,06,23,03,43,13.60
2010,06,23,03,44,13.60
2010,06,23,03,45,13.60
2010,06,23,03,46,13.50
2010,06,23,03,47,13.50
2010,06,23,03,48,13.50
2010,06,23,03,49,13.50
2010,06,23,03,50,13.50
2010,06,23,03,51,13.50
2010,06,23,03,52,13.50
2010,06,23,03,53,13.40
2010,06,23,03,54,13.40
2010,06,23,03,55,13.40
2010,06,23,03,56,13.40
2010,06,23,03,57,13.40
2010,06,23,03,58,13.40
2010,06,23,03,59,13.40
2010,06,23,04,00,13.40
2010,06,23,04,01,13.40
2010,06,23,04,02,13.40
2010,06,23,04,03,13.40
2010,06,23,04,04,13.40
2010,06,23,04,05,13.40
2010,06,23,04,06,13.40
2010,06,23,04,07,13.40
2010,06,23,04,08,13.40
2010,06,23,04,09,13.40
2010,06,23,04,10,13.40
2010,06,23,04,11,13.30
2010,06,23,04,12,13.30
2010,06,23,04,13,13.30
2010,06,23,04,14,13.30
2010,06,23,04,15,13.30
2010,06,23,04,16,13.30
2010,06,23,04,17,13.30
2010,06,23,04,18,13.30
2010,06,23,04,19,13.30
2010,06,23,04,20,13.30
2010,06,23,04,21,13.30
2010,06,23,04,22,13.30
2010,06,23,04,23,13.30
2010,06,23,04,24,13.30
2010,06,23,04,25,13.30
2010,06,23,04,26,13.30
2010,06,23,04,27,13.30
2010,06,23,04,28,13.30
2010,06,23,04,29,13.30
2010,06,23,04,30,13.30
2010,06,23,04,31,13.30
2010,06,23,04,32,13.30
2010,06,23,04,33,13.30
2010,06,23,04,34,13.30
2010,06,23,04,35,13.30
2010,06,23,04,36,13.30
2010,06,23,04,37,13.30
2010,06,23,04,38,13.30
2010,06,23,04,39,13.30
2010,06,23,04,40,13.30
2010,06,23,04,41,13.30
2010,06,23,04,42,13.30
2010,06,23,04,43,13.30
2010,06,23,04,44,13.30
2010,06,23,04,45,13.30
2010,06,23,04,46,13.30
2010,06,23,04,47,13.30
2010,06,23,04,48,13.30
2010,06,23,04,49,13.30
2010,06,23,04,50,13.30
2010,06,23,04,51,13.30
2010,06,23,04,52,13.30
2010,06,23,04,53,13.30
2010,06,23,04,54,13.30
2010,06,23,04,55,13.30
2010,06,23,04,56,13.30
2010,06,23,04,57,13.30
2010,06,23,04,58,13.30
2010,06,23,04,59,13.30
2010,06,23,05,00,13.30
2010,06,23,05,01,13.30
2010,06,23,05,02,13.30
2010,06,23,05,03,13.30
2010,06,23,05,04,13.30
2010,06,23,05,05,13.30
2010,06,23,05,06,13.30
2010,06,23,05,07,13.30
2010,06,23,05,08,13.30
2010,06,23,05,09,13.30
2010,06,23,05,10,13.30
2010,06,23,05,11,13.30
2010,06,23,05,12,13.30
2010,06,23,05,13,13.30
2010,06,23,05,14,13.30
2010,06,23,05,15,13.30
2010,06,23,05,16,13.30
2010,06,23,05,17,13.30
2010,06,23,05,18,13.30
2010,06,23,05,19,13.30
2010,06,23,05,20,13.30
2010,06,23,05,21,13.30
2010,06,23,05,22,13.30
2010,06,23,05,23,13.30
2010,06,23,05,24,13.30
2010,06,23,05,25,13.30
2010,06,23,05,26,13.30
2010,06,23,05,27,13.30
2010,06,23,05,28,13.30
2010,06,23,05,29,13.30
2010,06,23,05,30,13.30
2010,06,23,05,31,13.30
2010,06,23,05,32,13.20
2010,06,23,05,33,13.20
2010,06,23,05,34,13.20
2010,06,23,05,35,13.20
2010,06,23,05,36,13.20
2010,06,23,05,37,13.30
2010,06,23,05,38,13.30
2010,06,23,05,39,13.30
2010,06,23,05,40,13.30
2010,06,23,05,41,13.30
2010,06,23,05,42,13.20
2010,06,23,05,43,13.20
2010,06,23,05,44,13.20
2010,06,23,05,45,13.20
2010,06,23,05,46,13.20
2010,06,23,05,47,13.20
2010,06,23,05,48,13.20
2010,06,23,05,49,13.20
2010,06,23,05,50,13.20
2010,06,23,05,51,13.20
2010,06,23,05,52,13.20
2010,06,23,05,53,13.20
2010,06,23,05,54,13.20
2010,06,23,05,55,13.20
2010,06,23,05,56,13.20
2010,06,23,05,57,13.30
2010,06,23,05,58,13.30
2010,06,23,05,59,13.30
2010,06,23,06,00,13.30
2010,06,23,06,01,13.30
2010,06,23,06,02,13.30
2010,06,23,06,03,13.30
2010,06,23,06,04,13.30
2010,06,23,06,05,13.30
2010,06,23,06,06,13.30
2010,06,23,06,07,13.30
2010,06,23,06,08,13.30
2010,06,23,06,09,13.30
2010,06,23,06,10,13.40
2010,06,23,06,11,13.40
2010,06,23,06,12,13.40
2010,06,23,06,13,13.40
2010,06,23,06,14,13.40
2010,06,23,06,15,13.40
2010,06,23,06,16,13.40
2010,06,23,06,17,13.40
2010,06,23,06,18,13.40
2010,06,23,06,19,13.50
2010,06,23,06,20,13.50
2010,06,23,06,21,13.50
2010,06,23,06,22,13.50
2010,06,23,06,23,13.50
2010,06,23,06,24,13.50
2010,06,23,06,25,13.50
2010,06,23,06,26,13.60
2010,06,23,06,27,13.60
2010,06,23,06,28,13.60
2010,06,23,06,29,13.60
2010,06,23,06,30,13.60
2010,06,23,06,31,13.60
2010,06,23,06,32,13.60
2010,06,23,06,33,13.60
2010,06,23,06,34,13.60
2010,06,23,06,35,13.60
2010,06,23,06,36,13.60
2010,06,23,06,37,13.60
2010,06,23,06,38,13.60
2010,06,23,06,39,13.60
2010,06,23,06,40,13.70
2010,06,23,06,41,13.70
2010,06,23,06,42,13.70
2010,06,23,06,43,13.70
2010,06,23,06,44,13.70
2010,06,23,06,45,13.70
2010,06,23,06,46,13.70
2010,06,23,06,47,13.70
2010,06,23,06,48,13.70
2010,06,23,06,49,13.70
2010,06,23,06,50,13.70
2010,06,23,06,51,13.70
2010,06,23,06,52,13.70
2010,06,23,06,53,13.70
2010,06,23,06,54,13.70
2010,06,23,06,55,13.80
2010,06,23,06,56,13.80
2010,06,23,06,57,13.80
2010,06,23,06,58,13.80
2010,06,23,06,59,13.80
2010,06,23,07,00,13.80
2010,06,23,07,01,13.80
2010,06,23,07,02,13.80
2010,06,23,07,03,13.80
2010,06,23,07,04,13.90
2010,06,23,07,05,13.90
2010,06,23,07,06,13.90
2010,06,23,07,07,13.90
2010,06,23,07,08,13.90
2010,06,23,07,09,14.00
2010,06,23,07,10,14.00
2010,06,23,07,11,14.00
2010,06,23,07,12,14.10
2010,06,23,07,13,14.10
2010,06,23,07,14,14.20
2010,06,23,07,15,14.20
2010,06,23,07,16,14.20
2010,06,23,07,17,14.30
2010,06,23,07,18,14.30
2010,06,23,07,19,14.40
2010,06,23,07,20,14.50
2010,06,23,07,21,14.50
2010,06,23,07,22,14.60
2010,06,23,07,23,14.70
2010,06,23,07,24,14.70
2010,06,23,07,25,14.80
2010,06,23,07,26,14.90
2010,06,23,07,27,15.00
2010,06,23,07,28,15.00
2010,06,23,07,29,15.00
2010,06,23,07,30,15.00
2010,06,23,07,31,15.10
2010,06,23,07,32,15.20
2010,06,23,07,33,15.30
2010,06,23,07,34,15.30
2010,06,23,07,35,15.40
2010,06,23,07,36,15.50
2010,06,23,07,37,15.50
2010,06,23,07,38,15.60
2010,06,23,07,39,15.70
2010,06,23,07,40,15.70
2010,06,23,07,41,15.80
2010,06,23,07,42,15.80
2010,06,23,07,43,15.90
2010,06,23,07,44,15.90
2010,06,23,07,45,15.90
2010,06,23,07,46,16.00
2010,06,23,07,47,16.00
2010,06,23,07,48,16.10
2010,06,23,07,49,16.10
2010,06,23,07,50,16.10
2010,06,23,07,51,16.10
2010,06,23,07,52,16.20
2010,06,23,07,53,16.20
2010,06,23,07,54,16.20
2010,06,23,07,55,16.20
2010,06,23,07,56,16.20
2010,06,23,07,57,16.20
2010,06,23,07,58,16.20
2010,06,23,07,59,16.20
2010,06,23,08,00,16.20
2010,06,23,08,01,16.20
2010,06,23,08,02,16.20
2010,06,23,08,03,16.20
2010,06,23,08,04,16.20
2010,06,23,08,05,16.30
2010,06,23,08,06,16.30
2010,06,23,08,07,16.30
2010,06,23,08,08,16.30
2010,06,23,08,09,16.30
2010,06,23,08,10,16.30
2010,06,23,08,11,16.30
2010,06,23,08,12,16.40
2010,06,23,08,13,16.40
2010,06,23,08,14,16.40
2010,06,23,08,15,16.40
2010,06,23,08,16,16.40
2010,06,23,08,17,16.50
2010,06,23,08,18,16.50
2010,06,23,08,19,16.60
2010,06,23,08,20,16.60
2010,06,23,08,21,16.60
2010,06,23,08,22,16.60
2010,06,23,08,23,16.60
2010,06,23,08,24,16.60
2010,06,23,08,25,16.60
2010,06,23,08,26,16.70
2010,06,23,08,27,16.70
2010,06,23,08,28,16.70
2010,06,23,08,29,16.70
2010,06,23,08,30,16.70
2010,06,23,08,31,16.70
2010,06,23,08,32,16.80
2010,06,23,08,33,16.80
2010,06,23,08,34,16.80
2010,06,23,08,35,16.80
2010,06,23,08,36,16.80
2010,06,23,08,37,16.80
2010,06,23,08,38,16.90
2010,06,23,08,39,16.90
2010,06,23,08,40,16.90
2010,06,23,08,41,16.90
2010,06,23,08,42,16.90
2010,06,23,08,43,16.90
2010,06,23,08,44,16.90
2010,06,23,08,45,16.90
2010,06,23,08,46,16.90
2010,06,23,08,47,17.00
2010,06,23,08,48,17.00
2010,06,23,08,49,17.00
2010,06,23,08,50,17.10
2010,06,23,08,51,17.10
2010,06,23,08,52,17.10
2010,06,23,08,53,17.20
2010,06,23,08,54,17.20
2010,06,23,08,55,17.30
2010,06,23,08,56,17.30
2010,06,23,08,57,17.30
2010,06,23,08,58,17.40
2010,06,23,08,59,17.40
2010,06,23,09,00,17.50
2010,06,23,09,01,17.50
2010,06,23,09,02,17.50
2010,06,23,09,03,17.60
2010,06,23,09,04,17.60
2010,06,23,09,05,17.70
2010,06,23,09,06,17.70
2010,06,23,09,07,17.80
2010,06,23,09,08,17.80
2010,06,23,09,09,17.80
2010,06,23,09,10,17.80
2010,06,23,09,11,17.80
2010,06,23,09,12,17.80
2010,06,23,09,13,17.80
2010,06,23,09,14,17.70
2010,06,23,09,15,17.70
2010,06,23,09,16,17.60
2010,06,23,09,17,17.60
2010,06,23,09,18,17.60
2010,06,23,09,19,17.50
2010,06,23,09,20,17.50
2010,06,23,09,21,17.40
2010,06,23,09,22,17.40
2010,06,23,09,23,17.40
2010,06,23,09,24,17.40
2010,06,23,09,25,17.40
2010,06,23,09,26,17.40
2010,06,23,09,27,17.40
2010,06,23,09,28,17.40
2010,06,23,09,29,17.40
2010,06,23,09,30,17.40
2010,06,23,09,31,17.50
2010,06,23,09,32,17.50
2010,06,23,09,33,17.50
2010,06,23,09,34,17.60
2010,06,23,09,35,17.60
2010,06,23,09,36,17.60
2010,06,23,09,37,17.60
2010,06,23,09,38,17.70
2010,06,23,09,39,17.70
2010,06,23,09,40,17.70
2010,06,23,09,41,17.70
2010,06,23,09,42,17.70
2010,06,23,09,43,17.80
2010,06,23,09,44,17.80
2010,06,23,09,45,17.80
2010,06,23,09,46,17.80
2010,06,23,09,47,17.90
2010,06,23,09,48,17.90
2010,06,23,09,49,18.00
2010,06,23,09,50,18.00
2010,06,23,09,51,18.10
2010,06,23,09,52,18.10
2010,06,23,09,53,18.10
2010,06,23,09,54,18.20
2010,06,23,09,55,18.20
2010,06,23,09,56,18.30
2010,06,23,09,57,18.30
2010,06,23,09,58,18.40
2010,06,23,09,59,18.50
2010,06,23,10,00,18.50
2010,06,23,10,01,18.60
2010,06,23,10,02,18.70
2010,06,23,10,03,18.80
2010,06,23,10,04,19.00
2010,06,23,10,05,19.10
2010,06,23,10,06,19.20
2010,06,23,10,07,19.30
2010,06,23,10,08,19.40
2010,06,23,10,09,19.50
2010,06,23,10,10,19.70
2010,06,23,10,11,19.80
2010,06,23,10,12,19.80
2010,06,23,10,13,19.90
2010,06,23,10,14,20.00
2010,06,23,10,15,20.00
2010,06,23,10,16,20.10
2010,06,23,10,17,20.20
2010,06,23,10,18,20.20
2010,06,23,10,19,20.30
2010,06,23,10,20,20.30
2010,06,23,10,21,20.40
2010,06,23,10,22,20.40
2010,06,23,10,23,20.50
2010,06,23,10,24,20.60
2010,06,23,10,25,20.70
2010,06,23,10,26,20.80
2010,06,23,10,27,20.80
2010,06,23,10,28,20.80
2010,06,23,10,29,20.90
2010,06,23,10,30,20.90
2010,06,23,10,31,21.00
2010,06,23,10,32,21.00
2010,06,23,10,33,21.10
2010,06,23,10,34,21.10
2010,06,23,10,35,21.10
2010,06,23,10,36,21.10
2010,06,23,10,37,21.20
2010,06,23,10,38,21.20
2010,06,23,10,39,21.20
2010,06,23,10,40,21.20
2010,06,23,10,41,21.30
2010,06,23,10,42,21.40
2010,06,23,10,43,21.50
2010,06,23,10,44,21.50
2010,06,23,10,45,21.50
2010,06,23,10,46,21.50
2010,06,23,10,47,21.50
2010,06,23,10,48,21.60
2010,06,23,10,49,21.60
2010,06,23,10,50,21.60
2010,06,23,10,51,21.60
2010,06,23,10,52,21.60
2010,06,23,10,53,21.60
2010,06,23,10,54,21.60
2010,06,23,10,55,21.60
2010,06,23,10,56,21.60
2010,06,23,10,57,21.60
2010,06,23,10,58,21.60
2010,06,23,10,59,21.60
2010,06,23,11,00,21.50
2010,06,23,11,01,21.50
2010,06,23,11,02,21.50
2010,06,23,11,03,21.50
2010,06,23,11,04,21.50
2010,06,23,11,05,21.60
2010,06,23,11,06,21.60
2010,06,23,11,07,21.70
2010,06,23,11,08,21.70
2010,06,23,11,09,21.80
2010,06,23,11,10,21.80
2010,06,23,11,11,21.80
2010,06,23,11,12,21.80
2010,06,23,11,13,21.70
2010,06,23,11,14,21.70
2010,06,23,11,15,21.70
2010,06,23,11,16,21.70
2010,06,23,11,17,21.60
2010,06,23,11,18,21.60
2010,06,23,11,19,21.60
2010,06,23,11,20,21.60
2010,06,23,11,21,21.60
2010,06,23,11,22,21.60
2010,06,23,11,23,21.60
2010,06,23,11,24,21.60
2010,06,23,11,25,21.70
2010,06,23,11,26,21.80
2010,06,23,11,27,21.80
2010,06,23,11,28,21.80
2010,06,23,11,29,21.80
2010,06,23,11,30,21.70
2010,06,23,11,31,21.70
2010,06,23,11,32,21.70
2010,06,23,11,33,21.70
2010,06,23,11,34,21.80
2010,06,23,11,35,21.80
2010,06,23,11,36,21.80
2010,06,23,11,37,21.80
2010,06,23,11,38,21.90
2010,06,23,11,39,22.00
2010,06,23,11,40,22.10
2010,06,23,11,41,22.20
2010,06,23,11,42,22.20
2010,06,23,11,43,22.20
2010,06,23,11,44,22.30
2010,06,23,11,45,22.20
2010,06,23,11,46,22.30
2010,06,23,11,47,22.20
2010,06,23,11,48,22.20
2010,06,23,11,49,22.10
2010,06,23,11,50,22.10
2010,06,23,11,51,22.10
2010,06,23,11,52,22.10
2010,06,23,11,53,22.20
2010,06,23,11,54,22.20
2010,06,23,11,55,22.20
2010,06,23,11,56,22.30
2010,06,23,11,57,22.30
2010,06,23,11,58,22.30
2010,06,23,11,59,22.30
2010,06,23,12,00,22.40
2010,06,23,12,01,22.50
2010,06,23,12,02,22.50
2010,06,23,12,03,22.60
2010,06,23,12,04,22.50
2010,06,23,12,05,22.50
2010,06,23,12,06,22.60
2010,06,23,12,07,22.60
2010,06,23,12,08,22.60
2010,06,23,12,09,22.70
2010,06,23,12,10,22.70
2010,06,23,12,11,22.80
2010,06,23,12,12,22.80
2010,06,23,12,13,22.90
2010,06,23,12,14,23.10
2010,06,23,12,15,23.20
2010,06,23,12,16,23.30
2010,06,23,12,17,23.30
2010,06,23,12,18,23.30
2010,06,23,12,19,23.40
2010,06,23,12,20,23.40
2010,06,23,12,21,23.40
2010,06,23,12,22,23.40
2010,06,23,12,23,23.40
2010,06,23,12,24,23.40
2010,06,23,12,25,23.50
2010,06,23,12,26,23.50
2010,06,23,12,27,23.50
2010,06,23,12,28,23.40
2010,06,23,12,29,23.40
2010,06,23,12,30,23.40
2010,06,23,12,31,23.30
2010,06,23,12,32,23.20
2010,06,23,12,33,23.20
2010,06,23,12,34,23.10
2010,06,23,12,35,23.00
2010,06,23,12,36,23.00
2010,06,23,12,37,22.90
2010,06,23,12,38,22.90
2010,06,23,12,39,22.90
2010,06,23,12,40,23.00
2010,06,23,12,41,23.00
2010,06,23,12,42,23.10
2010,06,23,12,43,23.20
2010,06,23,12,44,23.20
2010,06,23,12,45,23.20
2010,06,23,12,46,23.20
2010,06,23,12,47,23.10
2010,06,23,12,48,23.10
2010,06,23,12,49,23.00
2010,06,23,12,50,22.90
2010,06,23,12,51,22.90
2010,06,23,12,52,22.80
2010,06,23,12,53,22.80
2010,06,23,12,54,22.80
2010,06,23,12,55,22.70
2010,06,23,12,56,22.70
2010,06,23,12,57,22.60
2010,06,23,12,58,22.60
2010,06,23,12,59,22.60
2010,06,23,13,00,22.50
2010,06,23,13,01,22.50
2010,06,23,13,02,22.40
2010,06,23,13,03,22.40
2010,06,23,13,04,22.40
2010,06,23,13,05,22.40
2010,06,23,13,06,22.50
2010,06,23,13,07,22.50
2010,06,23,13,08,22.60
2010,06,23,13,09,22.60
2010,06,23,13,10,22.70
2010,06,23,13,11,22.70
2010,06,23,13,12,22.80
2010,06,23,13,13,22.80
2010,06,23,13,14,22.90
2010,06,23,13,15,23.00
2010,06,23,13,16,23.10
2010,06,23,13,17,23.10
2010,06,23,13,18,23.20
2010,06,23,13,19,23.20
2010,06,23,13,20,23.10
2010,06,23,13,21,23.10
2010,06,23,13,22,23.10
2010,06,23,13,23,23.00
2010,06,23,13,24,22.90
2010,06,23,13,25,22.80
2010,06,23,13,26,22.70
2010,06,23,13,27,22.50
2010,06,23,13,28,22.40
2010,06,23,13,29,22.20
2010,06,23,13,30,22.10
2010,06,23,13,31,21.90
2010,06,23,13,32,21.80
2010,06,23,13,33,21.80
2010,06,23,13,34,21.70
2010,06,23,13,35,21.70
2010,06,23,13,36,21.60
2010,06,23,13,37,21.60
2010,06,23,13,38,21.60
2010,06,23,13,39,21.50
2010,06,23,13,40,21.50
2010,06,23,13,41,21.50
2010,06,23,13,42,21.50
2010,06,23,13,43,21.40
2010,06,23,13,44,21.40
2010,06,23,13,45,21.40
2010,06,23,13,46,21.30
2010,06,23,13,47,21.30
2010,06,23,13,48,21.30
2010,06,23,13,49,21.30
2010,06,23,13,50,21.30
2010,06,23,13,51,21.30
2010,06,23,13,52,21.30
2010,06,23,13,53,21.30
2010,06,23,13,54,21.20
2010,06,23,13,55,21.20
2010,06,23,13,56,21.10
2010,06,23,13,57,21.10
2010,06,23,13,58,21.00
2010,06,23,13,59,20.90
2010,06,23,14,00,20.90
2010,06,23,14,01,20.80
2010,06,23,14,02,20.80
2010,06,23,14,03,20.70
2010,06,23,14,04,20.70
2010,06,23,14,05,20.60
2010,06,23,14,06,20.60
2010,06,23,14,07,20.60
2010,06,23,14,08,20.60
2010,06,23,14,09,20.60
2010,06,23,14,10,20.60
2010,06,23,14,11,20.50
2010,06,23,14,12,20.50
2010,06,23,14,13,20.50
2010,06,23,14,14,20.40
2010,06,23,14,15,20.40
2010,06,23,14,16,20.40
2010,06,23,14,17,20.40
2010,06,23,14,18,20.40
2010,06,23,14,19,20.40
2010,06,23,14,20,20.40
2010,06,23,14,21,20.40
2010,06,23,14,22,20.50
2010,06,23,14,23,20.50
2010,06,23,14,24,20.50
2010,06,23,14,25,20.60
2010,06,23,14,26,20.70
2010,06,23,14,27,20.70
2010,06,23,14,28,20.80
2010,06,23,14,29,20.80
2010,06,23,14,30,20.90
2010,06,23,14,31,21.00
2010,06,23,14,32,21.00
2010,06,23,14,33,21.10
2010,06,23,14,34,21.20
2010,06,23,14,35,21.30
2010,06,23,14,36,21.40
2010,06,23,14,37,21.40
2010,06,23,14,38,21.50
2010,06,23,14,39,21.60
2010,06,23,14,40,21.60
2010,06,23,14,41,21.70
2010,06,23,14,42,21.70
2010,06,23,14,43,21.80
2010,06,23,14,44,21.80
2010,06,23,14,45,21.80
2010,06,23,14,46,21.90
2010,06,23,14,47,21.90
2010,06,23,14,48,22.00
2010,06,23,14,49,22.00
2010,06,23,14,50,22.00
2010,06,23,14,51,22.00
2010,06,23,14,52,22.00
2010,06,23,14,53,21.90
2010,06,23,14,54,21.80
2010,06,23,14,55,21.80
2010,06,23,14,56,21.80
2010,06,23,14,57,21.70
2010,06,23,14,58,21.70
2010,06,23,14,59,21.60
2010,06,23,15,00,21.50
2010,06,23,15,01,21.50
2010,06,23,15,02,21.40
2010,06,23,15,03,21.40
2010,06,23,15,04,21.30
2010,06,23,15,05,21.30
2010,06,23,15,06,21.20
2010,06,23,15,07,21.20
2010,06,23,15,08,21.10
2010,06,23,15,09,21.10
2010,06,23,15,10,21.10
2010,06,23,15,11,21.10
2010,06,23,15,12,21.00
2010,06,23,15,13,21.00
2010,06,23,15,14,20.90
2010,06,23,15,15,20.90
2010,06,23,15,16,20.80
2010,06,23,15,17,20.80
2010,06,23,15,18,20.80
2010,06,23,15,19,20.70
2010,06,23,15,20,20.60
2010,06,23,15,21,20.50
2010,06,23,15,22,20.40
2010,06,23,15,23,20.40
2010,06,23,15,24,20.30
2010,06,23,15,25,20.30
2010,06,23,15,26,20.20
2010,06,23,15,27,20.10
2010,06,23,15,28,20.10
2010,06,23,15,29,20.00
2010,06,23,15,30,20.00
2010,06,23,15,31,19.90
2010,06,23,15,32,19.90
2010,06,23,15,33,19.90
2010,06,23,15,34,19.80
2010,06,23,15,35,19.80
2010,06,23,15,36,19.80
2010,06,23,15,37,19.70
2010,06,23,15,38,19.70
2010,06,23,15,39,19.70
2010,06,23,15,40,19.60
2010,06,23,15,41,19.60
2010,06,23,15,42,19.60
2010,06,23,15,43,19.60
2010,06,23,15,44,19.60
2010,06,23,15,45,19.60
2010,06,23,15,46,19.60
2010,06,23,15,47,19.60
2010,06,23,15,48,19.60
2010,06,23,15,49,19.60
2010,06,23,15,50,19.60
2010,06,23,15,51,19.70
2010,06,23,15,52,19.70
2010,06,23,15,53,19.70
2010,06,23,15,54,19.80
2010,06,23,15,55,19.80
2010,06,23,15,56,19.90
2010,06,23,15,57,19.90
2010,06,23,15,58,20.00
2010,06,23,15,59,20.00
2010,06,23,16,00,20.10
2010,06,23,16,01,20.20
2010,06,23,16,02,20.30
2010,06,23,16,03,20.30
2010,06,23,16,04,20.50
2010,06,23,16,05,20.60
2010,06,23,16,06,20.70
2010,06,23,16,07,20.80
2010,06,23,16,08,21.00
2010,06,23,16,09,21.10
2010,06,23,16,10,21.20
2010,06,23,16,11,21.30
2010,06,23,16,12,21.40
2010,06,23,16,13,21.50
2010,06,23,16,14,21.70
2010,06,23,16,15,21.80
2010,06,23,16,16,21.90
2010,06,23,16,17,21.90
2010,06,23,16,18,22.00
2010,06,23,16,19,22.10
2010,06,23,16,20,22.20
2010,06,23,16,21,22.20
2010,06,23,16,22,22.30
2010,06,23,16,23,22.40
2010,06,23,16,24,22.50
2010,06,23,16,25,22.60
2010,06,23,16,26,22.70
2010,06,23,16,27,22.90
2010,06,23,16,28,23.00
2010,06,23,16,29,23.10
2010,06,23,16,30,23.20
2010,06,23,16,31,23.30
2010,06,23,16,32,23.40
2010,06,23,16,33,23.50
2010,06,23,16,34,23.50
2010,06,23,16,35,23.60
2010,06,23,16,36,23.60
2010,06,23,16,37,23.60
2010,06,23,16,38,23.70
2010,06,23,16,39,23.70
2010,06,23,16,40,23.70
2010,06,23,16,41,23.70
2010,06,23,16,42,23.70
2010,06,23,16,43,23.70
2010,06,23,16,44,23.80
2010,06,23,16,45,23.80
2010,06,23,16,46,23.80
2010,06,23,16,47,23.80
2010,06,23,16,48,23.80
2010,06,23,16,49,23.70
2010,06,23,16,50,23.70
2010,06,23,16,51,23.70
2010,06,23,16,52,23.70
2010,06,23,16,53,23.70
2010,06,23,16,54,23.70
2010,06,23,16,55,23.70
2010,06,23,16,56,23.70
2010,06,23,16,57,23.60
2010,06,23,16,58,23.60
2010,06,23,16,59,23.60
2010,06,23,17,00,23.50
2010,06,23,17,01,23.40
2010,06,23,17,02,23.30
2010,06,23,17,03,23.30
2010,06,23,17,04,23.20
2010,06,23,17,05,23.20
2010,06,23,17,06,23.10
2010,06,23,17,07,23.10
2010,06,23,17,08,23.00
2010,06,23,17,09,23.00
2010,06,23,17,10,23.00
2010,06,23,17,11,23.00
2010,06,23,17,12,22.90
2010,06,23,17,13,22.90
2010,06,23,17,14,22.90
2010,06,23,17,15,22.90
2010,06,23,17,16,22.90
2010,06,23,17,17,22.80
2010,06,23,17,18,22.80
2010,06,23,17,19,22.80
2010,06,23,17,20,22.80
2010,06,23,17,21,22.80
2010,06,23,17,22,22.70
2010,06,23,17,23,22.70